Terug naar catalogus

TIANPING-2A

ActiefWetenschapSSO
NORAD 52153·PAYLOAD·🇨🇳 China
Deze satellietnaam is nog niet bevestigd door officiële bronnen.

Gelanceerd Mar 30, 2022 vanaf Jiuquan Satellite Launch Center

Loading…

Volgende Passages (komende 24 uur)

TLE

VersSource: Space-Track

Epoch: Sep 14, 2026, 13:29 UTC

1 52153U 22032A   26257.56202727  .00000622  00000-0  58352-4 0  9995
2 52153  97.5785 292.6479 0009292 236.2603 123.7735 14.97399977243217

Volg TIANPING-2A in realtime met AllMySat

Download on the App Store